Overview Statistics Trail Chart Weather Telemetry Raw packets
 

This is the latest recevied weather packets stored in our database for station/object KB4JAC-13. If no packets are shown the sender has not sent any weather packets the latest 10 day(s).

<< 12 13 14 15 16 17 18 >>
Time Temp. Humidity Pressure Rain* Wind** Luminosity Snow
1788375016 36.11° C 49% 992.7 hPa 0 mm - - -
1788374415 37.22° C 49% 992.9 hPa 0 mm - - -
1788373814 36.67° C 49% 993 hPa 0 mm - - -
1788373213 36.67° C 51% 993.1 hPa 0 mm - - -
1788372612 36.11° C 52% 993 hPa 0 mm - - -
1788372011 36.67° C 52% 993.4 hPa 0 mm - - -
1788371410 36.67° C 52% 993.4 hPa 0 mm - - -
1788370809 36.11° C 52% 993.6 hPa 0 mm - - -
1788370208 35.56° C 55% 993.9 hPa 0 mm - - -
1788369607 36.11° C 54% 993.8 hPa 0 mm - - -
1788369006 35.56° C 54% 994.1 hPa 0 mm - - -
1788368406 35.56° C 57% 994.2 hPa 0 mm - - -
1788367805 35° C 58% 994.1 hPa 0 mm - - -
1788367204 35° C 58% 994.4 hPa 0 mm - - -
1788366603 35° C 59% 994.5 hPa 0 mm - - -
1788366002 35° C 58% 994.5 hPa 0 mm - - -
1788365401 34.44° C 60% 994.6 hPa 0 mm - - -
1788364800 33.89° C 63% 994.6 hPa 0 mm - - -
1788364199 34.44° C 63% 994.8 hPa 0 mm - - -
1788363598 34.44° C 67% 995 hPa 0 mm - - -
1788362997 32.78° C 69% 994.9 hPa 0 mm - - -
1788362396 32.22° C 70% 995.1 hPa 0 mm - - -
1788361795 32.22° C 71% 995 hPa 0 mm - - -
1788361194 31.67° C 73% 994.8 hPa 0 mm - - -
1788360593 31.11° C 74% 995 hPa 0 mm - - -

* Rain since midnight (hover to see other rain measurements)
** Current wind speed in m/s (hover to see current wind gust speed)